^^
Station Historical Data
 
Daily Summary for February 20, 2018 Units:  English    Metric   Both
« Previous Day
Next Day »
Daily Weekly Monthly Yearly Custom
  Current: High: Low: Average:
Temperature: -12.3 °F TemperatureC °F -16.3 °F -11.6 °F
Dew Point: -13.8 °F DewpointC °F -17.8 °F -13.4 °F
Humidity: 89% Humidity% 77% 86%
Wind Speed: 0.0mph WindSpeedKMHmph 0.0mph 0.4mph
Wind Gust: 0.0mph WindSpeedGustKMHmph - -
WindCalm - - South
Pressure: 1027.3 in PressurehPa in 1026.6 in -
Precipitation: 0.0 in      
Historical Graphs
 
 
Tabular Data for February 20, 2018
Time Temperature Dew Point Pressure Wind Wind Speed Wind Gust Humidity Rainfall Rate (Hourly) solar Conditions
TemperatureC °F DewpointC °F PressurehPa in Calm     Humidity% HourlyPrecipMM in SoftwareType W/m2 Conditions
00:02 -13.8 °F -15.2 °F 1026.6 in Calm     89% 0.0 in WeatherDisplay:10.37 W/m2 FEW
00:07 -13.8 °F -15.1 °F 1027.0 in NNW 0.8 mph 3.2 mph 90% 0.0 in WeatherDisplay:10.37 W/m2 FEW
00:12 -13.9 °F -15.2 °F 1027.0 in Calm     90% 0.0 in WeatherDisplay:10.37 W/m2 FEW
00:17 -13.9 °F -15.2 °F 1026.6 in Calm     90% 0.0 in WeatherDisplay:10.37 W/m2 FEW
00:22 -13.8 °F -15.1 °F 1027.0 in NNW 0.3 mph   90% 0.0 in WeatherDisplay:10.37 W/m2 FEW
00:27 -13.7 °F -14.9 °F 1027.0 in Calm     91% 0.0 in WeatherDisplay:10.37 W/m2 FEW
00:32 -13.7 °F -14.9 °F 1027.0 in NNW 2.7 mph 3.7 mph 91% 0.0 in WeatherDisplay:10.37 W/m2 FEW
00:37 -13.7 °F -14.9 °F 1027.0 in NNW 3.2 mph 4.8 mph 90% 0.0 in WeatherDisplay:10.37 W/m2 FEW
00:42 -13.6 °F -14.7 °F 1027.0 in NNW 2.3 mph 5.6 mph 91% 0.0 in WeatherDisplay:10.37 W/m2 FEW
00:47 -13.5 °F -14.7 °F 1027.0 in NNW 1.4 mph 3.7 mph 91% 0.0 in WeatherDisplay:10.37 W/m2 FEW
00:52 -13.5 °F -14.7 °F 1027.0 in NNW 3.5 mph 3.7 mph 91% 0.0 in WeatherDisplay:10.37 W/m2 FEW
00:57 -13.5 °F -14.7 °F 1027.0 in NNW 3.5 mph 5.6 mph 91% 0.0 in WeatherDisplay:10.37 W/m2 FEW
01:02 -13.6 °F -14.8 °F 1027.0 in NNW 4.7 mph 5.6 mph 90% 0.0 in WeatherDisplay:10.37 W/m2 FEW
01:07 -13.6 °F -14.8 °F 1027.0 in NNW 3.5 mph 5.6 mph 90% 0.0 in WeatherDisplay:10.37 W/m2 FEW
01:12 -13.5 °F -14.8 °F 1027.0 in NNW 2.3 mph 5.6 mph 90% 0.0 in WeatherDisplay:10.37 W/m2 FEW
01:17 -13.6 °F -14.8 °F 1027.0 in NNW 2.7 mph 5.6 mph 90% 0.0 in WeatherDisplay:10.37 W/m2 FEW
01:22 -13.6 °F -14.8 °F 1027.0 in NNW 1.0 mph 3.7 mph 90% 0.0 in WeatherDisplay:10.37 W/m2 FEW
01:27 -13.7 °F -14.9 °F 1027.0 in NNW 1.4 mph 4.8 mph 90% 0.0 in WeatherDisplay:10.37 W/m2 FEW
01:32 -13.7 °F -14.9 °F 1027.0 in NNW 2.3 mph 4.8 mph 90% 0.0 in WeatherDisplay:10.37 W/m2 FEW
01:37 -13.7 °F -15.0 °F 1027.0 in NNW 0.8 mph 3.7 mph 90% 0.0 in WeatherDisplay:10.37 W/m2 FEW
01:42 -13.8 °F -15.1 °F 1027.0 in Calm     90% 0.0 in WeatherDisplay:10.37 W/m2 FEW
01:47 -13.9 °F -15.2 °F 1027.0 in Calm     90% 0.0 in WeatherDisplay:10.37 W/m2 FEW
01:52 -14.0 °F -15.3 °F 1027.0 in Calm     90% 0.0 in WeatherDisplay:10.37 W/m2 FEW
01:57 -14.1 °F -15.6 °F 1027.0 in Calm     89% 0.0 in WeatherDisplay:10.37 W/m2 FEW
02:02 -14.2 °F -15.6 °F 1027.0 in Calm     89% 0.0 in WeatherDisplay:10.37 W/m2 FEW
02:07 -14.3 °F -15.7 °F 1027.0 in Calm     89% 0.0 in WeatherDisplay:10.37 W/m2 FEW
02:12 -14.4 °F -15.8 °F 1027.0 in Calm     89% 0.0 in WeatherDisplay:10.37 W/m2 FEW
02:17 -14.5 °F -15.9 °F 1027.0 in Calm     89% 0.0 in WeatherDisplay:10.37 W/m2 FEW
02:22 -14.7 °F -16.1 °F 1027.0 in Calm     89% 0.0 in WeatherDisplay:10.37 W/m2 FEW
02:27 -14.8 °F -16.2 °F 1027.0 in Calm     89% 0.0 in WeatherDisplay:10.37 W/m2 FEW
02:32 -14.9 °F -16.4 °F 1027.0 in Calm     88% 0.0 in WeatherDisplay:10.37 W/m2 FEW
02:37 -15.0 °F -15.1 °F 1027.0 in Calm     99% 0.0 in WeatherDisplay:10.37 W/m2 FEW
02:42 -15.1 °F -16.7 °F 1027.0 in Calm     88% 0.0 in WeatherDisplay:10.37 W/m2 FEW
02:47 -15.2 °F -16.7 °F 1027.0 in Calm     88% 0.0 in WeatherDisplay:10.37 W/m2 FEW
02:52 -15.2 °F -16.8 °F 1027.0 in Calm     88% 0.0 in WeatherDisplay:10.37 W/m2 FEW
02:57 -15.1 °F -16.5 °F 1027.0 in Calm     89% 0.0 in WeatherDisplay:10.37 W/m2 FEW
03:02 -15.1 °F -16.4 °F 1027.0 in Calm     89% 0.0 in WeatherDisplay:10.37 W/m2 FEW
03:07 -15.0 °F -16.4 °F 1027.0 in NNW 0.2 mph 1.9 mph 89% 0.0 in WeatherDisplay:10.37 W/m2 FEW
03:12 -15.0 °F -16.4 °F 1027.0 in Calm     89% 0.0 in WeatherDisplay:10.37 W/m2 FEW
03:17 -15.2 °F -16.6 °F 1027.0 in Calm     89% 0.0 in WeatherDisplay:10.37 W/m2 FEW
03:22 -15.3 °F -16.9 °F 1027.0 in Calm     88% 0.0 in WeatherDisplay:10.37 W/m2 FEW
03:27 -15.4 °F -17.0 °F 1027.0 in Calm     88% 0.0 in WeatherDisplay:10.37 W/m2 FEW
03:32 -15.4 °F -16.8 °F 1027.0 in Calm     89% 0.0 in WeatherDisplay:10.37 W/m2 FEW
03:37 -15.3 °F -16.7 °F 1027.0 in Calm     89% 0.0 in WeatherDisplay:10.37 W/m2 FEW
03:42 -15.2 °F -16.4 °F 1027.0 in Calm     90% 0.0 in WeatherDisplay:10.37 W/m2 FEW
03:47 -15.0 °F -16.3 °F 1027.0 in Calm     90% 0.0 in WeatherDisplay:10.37 W/m2 FEW
03:52 -14.9 °F -16.2 °F 1027.0 in Calm     90% 0.0 in WeatherDisplay:10.37 W/m2 FEW
03:57 -14.9 °F -16.2 °F 1026.6 in Calm     90% 0.0 in WeatherDisplay:10.37 W/m2 FEW
04:02 -14.9 °F -16.2 °F 1027.0 in Calm     90% 0.0 in WeatherDisplay:10.37 W/m2 FEW
04:07 -14.9 °F -16.3 °F 1026.6 in Calm     89% 0.0 in WeatherDisplay:10.37 W/m2 FEW
04:12 -14.9 °F -16.3 °F 1027.0 in Calm     89% 0.0 in WeatherDisplay:10.37 W/m2 FEW
04:17 -15.0 °F -16.4 °F 1027.0 in Calm     89% 0.0 in WeatherDisplay:10.37 W/m2 FEW
04:22 -15.1 °F -16.4 °F 1027.0 in Calm     89% 0.0 in WeatherDisplay:10.37 W/m2 FEW
04:27 -15.2 °F -16.6 °F 1027.0 in Calm     89% 0.0 in WeatherDisplay:10.37 W/m2 FEW
04:32 -15.3 °F -16.7 °F 1027.0 in Calm     89% 0.0 in WeatherDisplay:10.37 W/m2 FEW
04:37 -15.4 °F -16.9 °F 1027.0 in Calm     88% 0.0 in WeatherDisplay:10.37 W/m2 FEW
04:42 -15.5 °F -17.1 °F 1027.0 in Calm     88% 0.0 in WeatherDisplay:10.37 W/m2 FEW
04:47 -15.7 °F -17.2 °F 1027.0 in Calm     88% 0.0 in WeatherDisplay:10.37 W/m2 FEW
04:52 -15.8 °F -17.3 °F 1027.0 in Calm     88% 0.0 in WeatherDisplay:10.37 W/m2 FEW
04:57 -15.8 °F -17.4 °F 1027.0 in Calm     88% 0.0 in WeatherDisplay:10.37 W/m2 FEW
05:02 -15.9 °F -17.4 °F 1027.0 in Calm     88% 0.0 in WeatherDisplay:10.37 W/m2 FEW
05:07 -15.9 °F -17.5 °F 1027.0 in Calm     88% 0.0 in WeatherDisplay:10.37 W/m2 FEW
05:12 -16.0 °F -17.6 °F 1027.0 in Calm     88% 0.0 in WeatherDisplay:10.37 W/m2 FEW
05:17 -16.0 °F -17.6 °F 1027.0 in Calm     88% 0.0 in WeatherDisplay:10.37 W/m2 FEW
05:22 -16.0 °F -17.6 °F 1027.0 in Calm     88% 0.0 in WeatherDisplay:10.37 W/m2 FEW
05:27 -16.1 °F -17.6 °F 1027.0 in Calm     88% 0.0 in WeatherDisplay:10.37 W/m2 FEW
05:32 -16.1 °F -17.6 °F 1027.0 in Calm     88% 0.0 in WeatherDisplay:10.37 W/m2 FEW
05:37 -16.1 °F -17.6 °F 1027.0 in Calm     88% 0.0 in WeatherDisplay:10.37 W/m2 FEW
05:42 -16.2 °F -17.7 °F 1027.0 in Calm     88% 0.0 in WeatherDisplay:10.37 W/m2 FEW
05:47 -16.2 °F -17.7 °F 1027.0 in Calm     88% 0.0 in WeatherDisplay:10.37 W/m2 FEW
05:52 -16.2 °F -17.7 °F 1027.0 in Calm     88% 0.0 in WeatherDisplay:10.37 W/m2 FEW
05:57 -16.3 °F -17.8 °F 1027.0 in Calm     88% 0.0 in WeatherDisplay:10.37 W/m2 FEW
06:02 -16.3 °F -17.8 °F 1027.0 in Calm     88% 0.0 in WeatherDisplay:10.37 W/m2 FEW
06:07 -16.2 °F -17.7 °F 1027.0 in Calm     88% 0.0 in WeatherDisplay:10.37 W/m2 FEW
06:12 -16.2 °F -17.6 °F 1027.0 in Calm     89% 0.0 in WeatherDisplay:10.37 W/m2 FEW
06:17 -16.1 °F -17.5 °F 1027.3 in Calm     89% 0.0 in WeatherDisplay:10.37 W/m2 FEW
06:22 -16.1 °F -17.4 °F 1027.0 in Calm     89% 0.0 in WeatherDisplay:10.37 W/m2 FEW
06:27 -16.1 °F -17.4 °F 1027.0 in Calm     89% 0.0 in WeatherDisplay:10.37 W/m2 FEW
06:32 -15.9 °F -17.3 °F 1027.0 in Calm     89% 0.0 in WeatherDisplay:10.37 W/m2 FEW
06:37 -15.9 °F -17.3 °F 1027.0 in Calm     89% 0.0 in WeatherDisplay:10.37 W/m2 FEW
06:42 -15.8 °F -17.2 °F 1027.3 in Calm     89% 0.0 in WeatherDisplay:10.37 W/m2 FEW
06:47 -15.8 °F -17.2 °F 1027.3 in Calm     89% 0.0 in WeatherDisplay:10.37 W/m2 FEW
06:52 -15.9 °F -17.3 °F 1027.3 in Calm     89% 0.0 in WeatherDisplay:10.37 W/m2 FEW
06:57 -15.9 °F -17.3 °F 1027.0 in Calm     89% 0.0 in WeatherDisplay:10.37 W/m2 FEW
07:02 -15.9 °F -17.3 °F 1027.3 in Calm     89% 0.0 in WeatherDisplay:10.37 W/m2 FEW
07:07 -15.9 °F -17.3 °F 1027.3 in Calm     89% 0.0 in WeatherDisplay:10.37 W/m2 FEW
07:12 -16.0 °F -17.4 °F 1027.0 in Calm     89% 0.0 in WeatherDisplay:10.37 W/m2 FEW
07:17 -16.0 °F -17.6 °F 1027.0 in Calm     88% 0.0 in WeatherDisplay:10.37 W/m2 FEW
07:22 -16.0 °F -17.6 °F 1027.0 in Calm     88% 0.0 in WeatherDisplay:10.37 W/m2 FEW
07:27 -16.0 °F -17.6 °F 1027.0 in Calm     88% 0.0 in WeatherDisplay:10.37 W/m2 FEW
07:32 -16.1 °F -17.4 °F 1027.0 in Calm     89% 0.0 in WeatherDisplay:10.37 W/m2 FEW
07:37 -16.1 °F -17.6 °F 1027.0 in Calm     88% 0.0 in WeatherDisplay:10.37 W/m2 FEW
07:42 -16.2 °F -17.7 °F 1027.0 in Calm     88% 0.0 in WeatherDisplay:10.37 W/m2 FEW
07:47 -16.2 °F -17.7 °F 1027.0 in Calm     88% 0.0 in WeatherDisplay:10.37 W/m2 FEW
07:52 -16.3 °F -17.8 °F 1027.0 in Calm     88% 0.0 in WeatherDisplay:10.37 W/m2 FEW
07:57 -16.3 °F -17.8 °F 1027.0 in Calm     88% 0.0 in WeatherDisplay:10.37 W/m2 FEW
08:02 -16.2 °F -17.6 °F 1027.0 in Calm     89% 0.0 in WeatherDisplay:10.37 W/m2 FEW
08:07 -16.2 °F -17.6 °F 1027.0 in Calm     89% 0.0 in WeatherDisplay:10.37 W/m2 FEW
08:12 -16.2 °F -17.6 °F 1027.0 in Calm     89% 0.0 in WeatherDisplay:10.37 W/m2 FEW
08:17 -16.2 °F -17.6 °F 1027.0 in Calm     89% 0.0 in WeatherDisplay:10.37 W/m2 FEW
08:22 -16.2 °F -17.6 °F 1027.0 in Calm     89% 0.0 in WeatherDisplay:10.37 W/m2 FEW
08:27 -16.2 °F -17.7 °F 1027.0 in Calm     88% 0.0 in WeatherDisplay:10.37 W/m2 FEW
08:32 -16.1 °F -17.5 °F 1027.0 in Calm     89% 0.0 in WeatherDisplay:10.37 W/m2 FEW
08:37 -16.1 °F -17.6 °F 1027.0 in Calm     88% 0.0 in WeatherDisplay:10.37 W/m2 FEW
08:42 -16.0 °F -17.4 °F 1027.0 in Calm     89% 0.0 in WeatherDisplay:10.37 W/m2 FEW
08:47 -15.8 °F -17.2 °F 1027.0 in Calm     89% 0.0 in WeatherDisplay:10.37 W/m2 FEW
08:52 -15.6 °F -16.8 °F 1027.0 in Calm     90% 0.0 in WeatherDisplay:10.37 W/m2 FEW
08:57 -15.4 °F -16.7 °F 1027.3 in Calm     90% 0.0 in WeatherDisplay:10.37 W/m2 FEW
09:02 -15.3 °F -16.6 °F 1027.3 in Calm     90% 0.0 in WeatherDisplay:10.37 W/m2 FEW
09:07 -15.2 °F -16.5 °F 1027.3 in Calm     90% 0.0 in WeatherDisplay:10.37 W/m2 FEW
09:12 -15.0 °F -16.3 °F 1027.3 in Calm     90% 0.0 in WeatherDisplay:10.37 W/m2 FEW
09:17 -14.9 °F -16.2 °F 1027.3 in Calm     90% 0.0 in WeatherDisplay:10.37 W/m2 FEW
09:22 -14.8 °F -16.1 °F 1027.0 in Calm     90% 0.0 in WeatherDisplay:10.37 W/m2 FEW
09:27 -14.7 °F -15.9 °F 1027.3 in Calm     90% 0.0 in WeatherDisplay:10.37 W/m2 FEW
09:32 -14.4 °F -15.7 °F 1027.3 in Calm     90% 0.0 in WeatherDisplay:10.37 W/m2 FEW
09:37 -14.1 °F -15.2 °F 1027.3 in Calm     91% 0.0 in WeatherDisplay:10.37 W/m2 FEW
09:42 -13.8 °F -15.0 °F 1027.3 in NNW 0.2 mph   91% 0.0 in WeatherDisplay:10.37 W/m2 FEW
09:47 -13.4 °F -14.6 °F 1027.3 in Calm     91% 0.0 in WeatherDisplay:10.37 W/m2 FEW
09:52 -13.2 °F -14.3 °F 1027.3 in Calm     91% 0.0 in WeatherDisplay:10.37 W/m2 FEW
09:57 -12.9 °F -14.1 °F 1027.3 in NNW 2.4 mph 5.6 mph 91% 0.0 in WeatherDisplay:10.37 W/m2 FEW
10:02 -12.7 °F -13.8 °F 1027.3 in Calm     91% 0.0 in WeatherDisplay:10.37 W/m2 FEW
10:07 -12.3 °F -13.5 °F 1027.7 in NNW 0.6 mph 5.6 mph 91% 0.0 in WeatherDisplay:10.37 W/m2 FEW
10:12 -12.2 °F -13.3 °F 1027.3 in NNW 0.6 mph 5.6 mph 91% 0.0 in WeatherDisplay:10.37 W/m2 FEW
10:17 -11.9 °F -13.1 °F 1027.7 in NNW 1.3 mph 4.8 mph 91% 0.0 in WeatherDisplay:10.37 W/m2 FEW
10:23 -11.7 °F -12.9 °F 1027.7 in Calm     91% 0.0 in WeatherDisplay:10.37 W/m2 FEW
10:28 -11.6 °F -12.7 °F 1027.7 in Calm     91% 0.0 in WeatherDisplay:10.37 W/m2 FEW
10:33 -11.4 °F -12.6 °F 1027.7 in Calm     91% 0.0 in WeatherDisplay:10.37 W/m2 FEW
10:38 -11.2 °F -12.4 °F 1027.7 in NNW 1.3 mph 5.6 mph 91% 0.0 in WeatherDisplay:10.37 W/m2 FEW
10:43 -11.0 °F -12.2 °F 1027.7 in ENE 2.4 mph 6.4 mph 91% 0.0 in WeatherDisplay:10.37 W/m2 FEW
10:48 -10.9 °F -12.1 °F 1027.3 in Calm     91% 0.0 in WeatherDisplay:10.37 W/m2 FEW
10:53 -10.7 °F -12.1 °F 1027.7 in NE 0.6 mph 5.6 mph 90% 0.0 in WeatherDisplay:10.37 W/m2 FEW
10:58 -10.6 °F -11.7 °F 1027.7 in NE 0.3 mph 3.7 mph 91% 0.0 in WeatherDisplay:10.37 W/m2 FEW
11:03 -10.3 °F -11.4 °F 1027.7 in NNE 2.9 mph 4.8 mph 91% 0.0 in WeatherDisplay:10.37 W/m2 FEW
11:08 -10.1 °F -11.2 °F 1027.7 in Calm     91% 0.0 in WeatherDisplay:10.37 W/m2 FEW
11:13 -9.8 °F -11.2 °F 1027.3 in Calm   3.7 mph 90% 0.0 in WeatherDisplay:10.37 W/m2 FEW
11:18 -9.6 °F -10.9 °F 1027.3 in NE 2.3 mph 5.6 mph 90% 0.0 in WeatherDisplay:10.37 W/m2 FEW
11:23 -9.3 °F -10.7 °F 1027.3 in Calm     90% 0.0 in WeatherDisplay:10.37 W/m2 FEW
11:29 -8.8 °F -10.1 °F 1027.3 in ENE 3.4 mph 5.6 mph 90% 0.0 in WeatherDisplay:10.37 W/m2 FEW
11:34 -8.4 °F -9.9 °F 1027.3 in Calm   5.6 mph 89% 0.0 in WeatherDisplay:10.37 W/m2 FEW
11:39 -8.1 °F -9.7 °F 1027.3 in North 0.6 mph 6.4 mph 88% 0.0 in WeatherDisplay:10.37 W/m2 FEW
11:44 -7.9 °F -9.6 °F 1027.3 in NNE 3.4 mph 5.6 mph 88% 0.0 in WeatherDisplay:10.37 W/m2 FEW
11:49 -7.8 °F -9.4 °F 1027.3 in ENE 3.4 mph 7.4 mph 88% 0.0 in WeatherDisplay:10.37 W/m2 FEW
11:54 -7.6 °F -9.3 °F 1027.3 in NNW 4.0 mph 7.4 mph 87% 0.0 in WeatherDisplay:10.37 W/m2 FEW
11:59 -7.4 °F -9.4 °F 1027.3 in NNW 5.1 mph 5.6 mph 86% 0.0 in WeatherDisplay:10.37 W/m2 FEW
12:04 -7.3 °F -9.3 °F 1027.3 in North 2.1 mph 5.6 mph 86% 0.0 in WeatherDisplay:10.37 W/m2 FEW
12:09 -7.2 °F -9.1 °F 1027.3 in Calm     86% 0.0 in WeatherDisplay:10.37 W/m2 FEW
12:14 -6.9 °F -9.1 °F 1027.3 in Calm     85% 0.0 in WeatherDisplay:10.37 W/m2 FEW
12:19 -6.7 °F -8.8 °F 1027.3 in Calm     85% 0.0 in WeatherDisplay:10.37 W/m2 FEW
12:24 -6.6 °F -8.9 °F 1027.3 in North 0.2 mph 5.6 mph 84% 0.0 in WeatherDisplay:10.37 W/m2 FEW
12:29 -6.5 °F -8.8 °F 1027.3 in Calm     84% 0.0 in WeatherDisplay:10.37 W/m2 FEW
12:34 -6.3 °F -8.6 °F 1027.3 in Calm     84% 0.0 in WeatherDisplay:10.37 W/m2 FEW
12:39 -6.2 °F -8.6 °F 1027.3 in Calm   5.6 mph 83% 0.0 in WeatherDisplay:10.37 W/m2 FEW
12:44 -6.1 °F -8.6 °F 1027.3 in NE 1.4 mph 5.6 mph 83% 0.0 in WeatherDisplay:10.37 W/m2 FEW
12:49 -6.1 °F -8.5 °F 1027.3 in NNE 1.0 mph 1.6 mph 83% 0.0 in WeatherDisplay:10.37 W/m2 FEW
12:54 -6.1 °F -8.7 °F 1027.3 in North 2.3 mph 5.6 mph 82% 0.0 in WeatherDisplay:10.37 W/m2 FEW
12:59 -6.0 °F -8.6 °F 1027.3 in Calm     82% 0.0 in WeatherDisplay:10.37 W/m2 FEW
13:04 -5.9 °F -8.4 °F 1027.3 in Calm     82% 0.0 in WeatherDisplay:10.37 W/m2 FEW
13:09 -5.8 °F -8.5 °F 1027.3 in NNE 1.1 mph 5.6 mph 81% 0.0 in WeatherDisplay:10.37 W/m2 FEW
13:14 -5.7 °F -8.4 °F 1027.3 in NNE 2.3 mph 5.6 mph 81% 0.0 in WeatherDisplay:10.37 W/m2 FEW
13:19 -5.6 °F -8.3 °F 1027.3 in Calm     81% 0.0 in WeatherDisplay:10.37 W/m2 FEW
13:24 -5.5 °F -8.4 °F 1027.3 in Calm     80% 0.0 in WeatherDisplay:10.37 W/m2 FEW
13:29 -5.5 °F -8.4 °F 1027.3 in Calm   1.6 mph 80% 0.0 in WeatherDisplay:10.37 W/m2 FEW
13:34 -5.6 °F -8.5 °F 1027.3 in ENE 3.4 mph 5.6 mph 80% 0.0 in WeatherDisplay:10.37 W/m2 FEW
13:39 -5.7 °F -8.8 °F 1027.3 in ENE 1.0 mph 3.7 mph 79% 0.0 in WeatherDisplay:10.37 W/m2 FEW
13:44 -5.8 °F -8.7 °F 1027.3 in Calm   3.7 mph 80% 0.0 in WeatherDisplay:10.37 W/m2 FEW
13:49 -5.8 °F -8.7 °F 1027.3 in Calm     80% 0.0 in WeatherDisplay:10.37 W/m2 FEW
13:54 -5.8 °F -8.7 °F 1027.3 in NE 0.8 mph 5.6 mph 80% 0.0 in WeatherDisplay:10.37 W/m2 FEW
13:59 -5.8 °F -8.9 °F 1027.3 in ENE 3.1 mph 7.4 mph 79% 0.0 in WeatherDisplay:10.37 W/m2 FEW
14:04 -5.8 °F -8.9 °F 1027.3 in NE 1.4 mph 3.2 mph 79% 0.0 in WeatherDisplay:10.37 W/m2 FEW
14:09 -5.7 °F -8.8 °F 1027.3 in Calm     79% 0.0 in WeatherDisplay:10.37 W/m2 FEW
14:14 -5.7 °F -8.7 °F 1027.3 in Calm     79% 0.0 in WeatherDisplay:10.37 W/m2 FEW
14:19 -5.6 °F -8.8 °F 1027.3 in Calm     78% 0.0 in WeatherDisplay:10.37 W/m2 FEW
14:24 -5.7 °F -8.9 °F 1027.3 in Calm     78% 0.0 in WeatherDisplay:10.37 W/m2 FEW
14:29 -5.7 °F -9.1 °F 1027.3 in NE 1.6 mph 4.8 mph 77% 0.0 in WeatherDisplay:10.37 W/m2 FEW
14:34 -5.7 °F -8.9 °F 1027.3 in NE 0.6 mph 3.2 mph 78% 0.0 in WeatherDisplay:10.37 W/m2 FEW
14:39 -5.7 °F -8.9 °F 1027.3 in Calm     78% 0.0 in WeatherDisplay:10.37 W/m2 FEW
14:45 -5.7 °F -8.9 °F 1027.0 in Calm   3.2 mph 78% 0.0 in WeatherDisplay:10.37 W/m2 FEW
14:50 -5.7 °F -8.9 °F 1027.0 in NE 2.4 mph 5.6 mph 78% 0.0 in WeatherDisplay:10.37 W/m2 FEW
14:55 -5.8 °F -9.0 °F 1027.3 in NE 0.3 mph 1.9 mph 78% 0.0 in WeatherDisplay:10.37 W/m2 FEW
15:00 -5.8 °F -9.1 °F 1027.3 in NE 2.7 mph 3.7 mph 78% 0.0 in WeatherDisplay:10.37 W/m2 FEW
15:05 -5.8 °F -9.1 °F 1027.3 in Calm     78% 0.0 in WeatherDisplay:10.37 W/m2 FEW
15:10 -5.8 °F -9.2 °F 1027.3 in NE 0.3 mph 5.6 mph 77% 0.0 in WeatherDisplay:10.37 W/m2 FEW
15:15 -5.9 °F -9.3 °F 1027.3 in Calm     77% 0.0 in WeatherDisplay:10.37 W/m2 FEW
15:20 -5.9 °F -9.3 °F 1027.0 in NE 0.6 mph 4.8 mph 77% 0.0 in WeatherDisplay:10.37 W/m2 FEW
15:25 -5.9 °F -9.2 °F 1027.0 in Calm     78% 0.0 in WeatherDisplay:10.37 W/m2 FEW
15:30 -6.0 °F -9.2 °F 1027.0 in NE 0.3 mph 4.8 mph 78% 0.0 in WeatherDisplay:10.37 W/m2 FEW
15:35 -6.0 °F -9.2 °F 1027.0 in Calm     78% 0.0 in WeatherDisplay:10.37 W/m2 FEW
15:40 -6.1 °F -9.3 °F 1027.0 in Calm     78% 0.0 in WeatherDisplay:10.37 W/m2 FEW
15:45 -6.1 °F -9.3 °F 1027.0 in Calm     78% 0.0 in WeatherDisplay:10.37 W/m2 FEW
15:50 -6.2 °F -9.4 °F 1027.0 in Calm     78% 0.0 in WeatherDisplay:10.37 W/m2 FEW
15:55 -6.2 °F -9.4 °F 1027.0 in Calm     78% 0.0 in WeatherDisplay:10.37 W/m2 FEW
16:00 -6.3 °F -9.3 °F 1027.0 in Calm     79% 0.0 in WeatherDisplay:10.37 W/m2 FEW
16:05 -6.3 °F -9.4 °F 1027.0 in Calm     79% 0.0 in WeatherDisplay:10.37 W/m2 FEW
16:10 -6.3 °F -9.4 °F 1027.0 in Calm     79% 0.0 in WeatherDisplay:10.37 W/m2 FEW
16:15 -6.4 °F -9.4 °F 1027.0 in NE 0.2 mph 3.2 mph 79% 0.0 in WeatherDisplay:10.37 W/m2 FEW
16:20 -6.5 °F -9.6 °F 1027.0 in Calm     79% 0.0 in WeatherDisplay:10.37 W/m2 FEW
16:25 -6.6 °F -9.6 °F 1027.0 in Calm     79% 0.0 in WeatherDisplay:10.37 W/m2 FEW
16:30 -6.7 °F -9.6 °F 1027.0 in Calm     80% 0.0 in WeatherDisplay:10.37 W/m2 FEW
16:35 -6.8 °F -9.7 °F 1027.0 in Calm     80% 0.0 in WeatherDisplay:10.37 W/m2 FEW
16:40 -6.9 °F -9.8 °F 1027.0 in Calm     80% 0.0 in WeatherDisplay:10.37 W/m2 FEW
16:45 -7.1 °F -9.8 °F 1027.0 in Calm     81% 0.0 in WeatherDisplay:10.37 W/m2 FEW
16:50 -7.3 °F -9.8 °F 1027.0 in Calm     82% 0.0 in WeatherDisplay:10.37 W/m2 FEW
16:55 -7.4 °F -10.0 °F 1027.0 in Calm     82% 0.0 in WeatherDisplay:10.37 W/m2 FEW
17:00 -7.6 °F -9.9 °F 1027.0 in Calm     83% 0.0 in WeatherDisplay:10.37 W/m2 FEW
17:05 -7.7 °F -10.1 °F 1027.0 in Calm     83% 0.0 in WeatherDisplay:10.37 W/m2 FEW
17:10 -7.9 °F -10.1 °F 1027.0 in Calm     84% 0.0 in WeatherDisplay:10.37 W/m2 FEW
17:15 -8.0 °F -10.2 °F 1027.0 in Calm     84% 0.0 in WeatherDisplay:10.37 W/m2 FEW
17:20 -8.2 °F -10.2 °F 1027.0 in Calm     85% 0.0 in WeatherDisplay:10.37 W/m2 FEW
17:25 -8.3 °F -10.4 °F 1027.0 in Calm     85% 0.0 in WeatherDisplay:10.37 W/m2 FEW
17:30 -8.5 °F -10.6 °F 1027.0 in Calm     85% 0.0 in WeatherDisplay:10.37 W/m2 FEW
17:35 -8.7 °F -10.7 °F 1027.0 in Calm     85% 0.0 in WeatherDisplay:10.37 W/m2 FEW
17:40 -8.8 °F -10.8 °F 1027.0 in Calm     85% 0.0 in WeatherDisplay:10.37 W/m2 FEW
17:45 -9.0 °F -11.1 °F 1027.0 in Calm     85% 0.0 in WeatherDisplay:10.37 W/m2 FEW
17:50 -9.2 °F -11.1 °F 1027.0 in Calm     86% 0.0 in WeatherDisplay:10.37 W/m2 FEW
17:55 -9.3 °F -11.2 °F 1027.0 in Calm     86% 0.0 in WeatherDisplay:10.37 W/m2 FEW
18:00 -9.5 °F -11.4 °F 1027.0 in Calm     86% 0.0 in WeatherDisplay:10.37 W/m2 FEW
18:05 -9.7 °F -11.6 °F 1027.0 in Calm     86% 0.0 in WeatherDisplay:10.37 W/m2 FEW
18:10 -9.8 °F -11.6 °F 1027.0 in Calm     87% 0.0 in WeatherDisplay:10.37 W/m2 FEW
18:15 -9.9 °F -11.7 °F 1027.0 in Calm     87% 0.0 in WeatherDisplay:10.37 W/m2 FEW
18:20 -10.1 °F -11.8 °F 1027.0 in Calm     87% 0.0 in WeatherDisplay:10.37 W/m2 FEW
18:25 -10.2 °F -11.9 °F 1027.0 in Calm     87% 0.0 in WeatherDisplay:10.37 W/m2 FEW
18:30 -10.3 °F -12.1 °F 1027.0 in Calm     87% 0.0 in WeatherDisplay:10.37 W/m2 FEW
18:35 -10.4 °F -12.2 °F 1027.0 in Calm     87% 0.0 in WeatherDisplay:10.37 W/m2 FEW
18:40 -10.6 °F -12.3 °F 1027.0 in Calm     87% 0.0 in WeatherDisplay:10.37 W/m2 FEW
18:45 -10.7 °F -12.3 °F 1027.0 in Calm     88% 0.0 in WeatherDisplay:10.37 W/m2 FEW
18:50 -10.8 °F -12.4 °F 1027.0 in Calm     88% 0.0 in WeatherDisplay:10.37 W/m2 FEW
18:55 -11.0 °F -12.6 °F 1027.0 in Calm     88% 0.0 in WeatherDisplay:10.37 W/m2 FEW
19:00 -11.2 °F -12.8 °F 1027.0 in Calm     88% 0.0 in WeatherDisplay:10.37 W/m2 FEW
19:05 -11.3 °F -12.9 °F 1027.0 in Calm     88% 0.0 in WeatherDisplay:10.37 W/m2 FEW
19:10 -11.4 °F -13.1 °F 1027.0 in Calm     88% 0.0 in WeatherDisplay:10.37 W/m2 FEW
19:15 -11.6 °F -13.2 °F 1027.0 in Calm     88% 0.0 in WeatherDisplay:10.37 W/m2 FEW
19:20 -11.7 °F -13.3 °F 1027.0 in Calm     88% 0.0 in WeatherDisplay:10.37 W/m2 FEW
19:25 -11.8 °F -13.4 °F 1027.0 in Calm     88% 0.0 in WeatherDisplay:10.37 W/m2 FEW
19:30 -11.9 °F -13.6 °F 1027.0 in Calm     88% 0.0 in WeatherDisplay:10.37 W/m2 FEW
19:35 -12.1 °F -13.7 °F 1027.0 in Calm     88% 0.0 in WeatherDisplay:10.37 W/m2 FEW
19:40 -12.2 °F -13.7 °F 1027.0 in Calm     89% 0.0 in WeatherDisplay:10.37 W/m2 FEW
19:45 -12.3 °F -13.7 °F 1027.0 in Calm     89% 0.0 in WeatherDisplay:10.37 W/m2 FEW
19:50 -12.3 °F -13.8 °F 1027.3 in Calm     89% 0.0 in WeatherDisplay:10.37 W/m2 FEW
Tuulensuunkaari, Veikkola, Suomi
Compliments of Weather Underground - 2.25 mb